• In Hungary
  • List of Countries
  • For 7 days
  • Water Temperature
  • Satellite Maps
  • Weather Map
  • News
  • Weather Widgets
  • user-avatar
    Login

    Hourly Weather Dory

    Today, 21 August, Tuesday

    Time Temperature Precipitation Wind Pressure Humidity
    00:00 +15°C° 0 mm 4 mps 738 mmHg 96%
    01:00 +15°C° 0 mm 4 mps 737 mmHg 95%
    02:00 +15°C° 0 mm 4 mps 736 mmHg 95%
    03:00 +16°C° 0.3 mm 5 mps 736 mmHg 95%
    04:00 +16°C° 0.3 mm 6 mps 735 mmHg 94%
    05:00 +16°C° 0.3 mm 6 mps 734 mmHg 93%
    06:00 +16°C° 1 mm 6 mps 733 mmHg 93%
    07:00 +16°C° 1 mm 6 mps 733 mmHg 93%
    08:00 +17°C° 1 mm 7 mps 732 mmHg 93%
    09:00 +17°C° 1 mm 7 mps 732 mmHg 89%
    10:00 +17°C° 1 mm 7 mps 732 mmHg 85%
    11:00 +18°C° 1 mm 7 mps 732 mmHg 81%
    12:00 +18°C° 0.1 mm 7 mps 733 mmHg 74%
    13:00 +18°C° 0.1 mm 7 mps 733 mmHg 67%
    14:00 +18°C° 0.1 mm 8 mps 733 mmHg 59%
    15:00 +17°C° 0 mm 7 mps 734 mmHg 61%
    16:00 +16°C° 0 mm 6 mps 734 mmHg 62%
    17:00 +15°C° 0 mm 6 mps 735 mmHg 64%
    18:00 +14°C° 0 mm 5 mps 735 mmHg 69%
    19:00 +13°C° 0 mm 5 mps 736 mmHg 75%
    20:00 +12°C° 0 mm 5 mps 736 mmHg 80%
    21:00 +11°C° 0 mm 4 mps 736 mmHg 82%
    22:00 +11°C° 0 mm 4 mps 736 mmHg 84%
    23:00 +10°C° 0 mm 4 mps 736 mmHg 86%

    Tomorrow, 22 August, Wednesday

    Time Temperature Precipitation Wind Pressure Humidity
    00:00 +9°C° 0 mm 5 mps 737 mmHg 87%
    01:00 +9°C° 0 mm 5 mps 737 mmHg 87%
    02:00 +9°C° 0 mm 5 mps 737 mmHg 87%
    03:00 +9°C° 0 mm 5 mps 738 mmHg 87%
    04:00 +9°C° 0 mm 5 mps 738 mmHg 87%
    05:00 +9°C° 0 mm 5 mps 738 mmHg 87%
    06:00 +10°C° 0 mm 6 mps 739 mmHg 80%
    07:00 +11°C° 0 mm 6 mps 739 mmHg 73%
    08:00 +13°C° 0 mm 6 mps 740 mmHg 66%
    09:00 +14°C° 0 mm 6 mps 740 mmHg 63%
    10:00 +15°C° 0 mm 6 mps 741 mmHg 59%
    11:00 +15°C° 0 mm 6 mps 741 mmHg 56%
    12:00 +16°C° 0.1 mm 6 mps 742 mmHg 54%
    13:00 +16°C° 0.1 mm 6 mps 742 mmHg 51%
    14:00 +17°C° 0.1 mm 6 mps 742 mmHg 49%
    15:00 +17°C° 0 mm 6 mps 743 mmHg 51%
    16:00 +16°C° 0 mm 5 mps 743 mmHg 53%
    17:00 +17°C° 0 mm 4 mps 744 mmHg 55%
    18:00 +14°C° 0 mm 4 mps 744 mmHg 59%
    19:00 +13°C° 0 mm 4 mps 745 mmHg 64%
    20:00 +11°C° 0 mm 3 mps 745 mmHg 68%
    21:00 +10°C° 0 mm 3 mps 746 mmHg 71%
    22:00 +9°C° 0 mm 3 mps 746 mmHg 74%
    23:00 +8°C° 0 mm 3 mps 747 mmHg 77%

    Day after tomorrow, 23 August, Thursday

    Time Temperature Precipitation Wind Pressure Humidity
    00:00 +8°C° 0 mm 2 mps 747 mmHg 79%
    01:00 +8°C° 0 mm 2 mps 747 mmHg 81%
    02:00 +7°C° 0 mm 2 mps 747 mmHg 82%
    03:00 +7°C° 0 mm 2 mps 748 mmHg 82%
    04:00 +7°C° 0 mm 2 mps 748 mmHg 81%
    05:00 +7°C° 0 mm 3 mps 748 mmHg 80%
    06:00 +9°C° 0 mm 3 mps 748 mmHg 74%
    07:00 +11°C° 0 mm 3 mps 748 mmHg 68%
    08:00 +14°C° 0 mm 3 mps 748 mmHg 62%
    09:00 +15°C° 0 mm 4 mps 748 mmHg 58%
    10:00 +18°C° 0 mm 4 mps 748 mmHg 54%
    11:00 +19°C° 0 mm 4 mps 748 mmHg 50%
    12:00 +20°C° 0 mm 4 mps 748 mmHg 49%
    13:00 +20°C° 0 mm 4 mps 747 mmHg 48%
    14:00 +21°C° 0 mm 4 mps 747 mmHg 47%
    15:00 +20°C° 0 mm 4 mps 747 mmHg 51%
    16:00 +20°C° 0 mm 4 mps 747 mmHg 54%
    17:00 +19°C° 0 mm 3 mps 747 mmHg 58%
    18:00 +18°C° 0 mm 3 mps 747 mmHg 65%
    19:00 +16°C° 0 mm 3 mps 747 mmHg 71%
    20:00 +13°C° 0 mm 3 mps 747 mmHg 78%
    21:00 +12°C° 0 mm 3 mps 747 mmHg 80%
    22:00 +12°C° 0 mm 3 mps 747 mmHg 82%
    23:00 +11°C° 0 mm 3 mps 747 mmHg 85%

    24 August, Friday

    Time Temperature Precipitation Wind Pressure Humidity
    00:00 +11°C° 0 mm 3 mps 747 mmHg 86%
    01:00 +10°C° 0 mm 2 mps 747 mmHg 87%
    02:00 +10°C° 0 mm 2 mps 747 mmHg 88%
    03:00 +10°C° 0 mm 2 mps 747 mmHg 88%
    04:00 +9°C° 0 mm 2 mps 747 mmHg 89%
    05:00 +9°C° 0 mm 2 mps 747 mmHg 89%
    06:00 +12°C° 0 mm 2 mps 747 mmHg 82%
    07:00 +13°C° 0 mm 3 mps 747 mmHg 76%
    08:00 +16°C° 0 mm 3 mps 747 mmHg 69%
    09:00 +18°C° 0 mm 3 mps 747 mmHg 63%
    10:00 +19°C° 0 mm 3 mps 747 mmHg 58%
    11:00 +21°C° 0 mm 3 mps 747 mmHg 52%
    12:00 +21°C° 0 mm 3 mps 747 mmHg 51%
    13:00 +22°C° 0 mm 3 mps 746 mmHg 50%
    14:00 +22°C° 0 mm 3 mps 746 mmHg 49%
    15:00 +22°C° 0 mm 3 mps 746 mmHg 53%
    16:00 +21°C° 0 mm 3 mps 746 mmHg 57%
    17:00 +21°C° 0 mm 2 mps 745 mmHg 61%
    18:00 +19°C° 0 mm 2 mps 745 mmHg 68%
    19:00 +17°C° 0 mm 2 mps 745 mmHg 74%
    20:00 +15°C° 0 mm 2 mps 745 mmHg 81%
    21:00 +14°C° 0 mm 2 mps 745 mmHg 83%
    22:00 +14°C° 0 mm 2 mps 745 mmHg 85%
    23:00 +13°C° 0 mm 2 mps 746 mmHg 87%

    25 August, Saturday

    Time Temperature Precipitation Wind Pressure Humidity
    00:00 +13°C° 0 mm 2 mps 746 mmHg 89%
    01:00 +12°C° 0 mm 2 mps 746 mmHg 90%
    02:00 +11°C° 0 mm 3 mps 746 mmHg 91%
    03:00 +11°C° 0 mm 3 mps 745 mmHg 91%
    04:00 +11°C° 0 mm 3 mps 745 mmHg 91%
    05:00 +11°C° 0 mm 3 mps 745 mmHg 91%
    06:00 +13°C° 0 mm 3 mps 745 mmHg 83%
    07:00 +16°C° 0 mm 3 mps 745 mmHg 75%
    08:00 +18°C° 0 mm 4 mps 745 mmHg 68%
    09:00 +19°C° 0 mm 4 mps 745 mmHg 62%
    10:00 +21°C° 0 mm 5 mps 745 mmHg 56%
    11:00 +23°C° 0 mm 5 mps 745 mmHg 50%
    12:00 +23°C° 0 mm 5 mps 745 mmHg 48%
    13:00 +25°C° 0 mm 5 mps 745 mmHg 47%
    14:00 +25°C° 0 mm 5 mps 745 mmHg 46%
    15:00 +25°C° 0 mm 4 mps 744 mmHg 50%
    16:00 +23°C° 0 mm 4 mps 744 mmHg 54%
    17:00 +22°C° 0 mm 3 mps 744 mmHg 58%
    18:00 +21°C° 0 mm 3 mps 744 mmHg 63%
    19:00 +19°C° 0 mm 3 mps 744 mmHg 69%
    20:00 +17°C° 0 mm 3 mps 744 mmHg 74%
    21:00 +16°C° 0 mm 3 mps 744 mmHg 75%
    22:00 +16°C° 0 mm 3 mps 745 mmHg 76%
    23:00 +14°C° 0 mm 3 mps 745 mmHg 77%

    26 August, Sunday

    Time Temperature Precipitation Wind Pressure Humidity
    00:00 +14°C° 0 mm 3 mps 745 mmHg 79%
    01:00 +14°C° 0 mm 3 mps 745 mmHg 81%
    02:00 +13°C° 0 mm 3 mps 745 mmHg 83%
    03:00 +13°C° 0 mm 3 mps 745 mmHg 85%
    04:00 +12°C° 0 mm 3 mps 745 mmHg 86%
    05:00 +12°C° 0 mm 3 mps 745 mmHg 88%
    06:00 +14°C° 0 mm 3 mps 746 mmHg 81%
    07:00 +17°C° 0 mm 3 mps 746 mmHg 74%
    08:00 +19°C° 0 mm 3 mps 746 mmHg 67%
    09:00 +20°C° 0 mm 3 mps 746 mmHg 60%
    10:00 +22°C° 0 mm 3 mps 746 mmHg 54%
    11:00 +25°C° 0 mm 4 mps 746 mmHg 48%
    12:00 +25°C° 0 mm 4 mps 746 mmHg 47%
    13:00 +26°C° 0 mm 3 mps 746 mmHg 45%
    14:00 +26°C° 0 mm 3 mps 746 mmHg 43%
    15:00 +25°C° 0 mm 3 mps 746 mmHg 48%
    16:00 +25°C° 0 mm 2 mps 746 mmHg 52%
    17:00 +24°C° 0 mm 2 mps 746 mmHg 56%
    18:00 +21°C° 0 mm 2 mps 746 mmHg 61%
    19:00 +19°C° 0 mm 2 mps 746 mmHg 66%
    20:00 +17°C° 0 mm 2 mps 747 mmHg 71%
    21:00 +17°C° 0 mm 2 mps 747 mmHg 72%
    22:00 +16°C° 0 mm 2 mps 747 mmHg 73%
    23:00 +15°C° 0 mm 2 mps 747 mmHg 74%
    Show more